Creek Data

    Home     View Charts     View Raw Data     Messages

ID Distance Battery Voltage Battery Current Internal Temp Internal Humidity External Temp Solar Input rssi snr Time Stamp Record
34337 15.2 4.07 14 67 40 62 4.5 -75 8 03/07/2025 05:30 PM 16063
34336 15.2 4.01 0 70 39 64 5.1 -76 7 03/07/2025 05:00 PM 16061
34335 15.3 4.03 0 71 38 64 5.1 -75 7 03/07/2025 04:45 PM 16060
34334 15.3 4.06 0 71 38 64 5.1 -75 8 03/07/2025 04:30 PM 16059
34333 15.4 4.01 0 71 38 64 5.1 -74 8 03/07/2025 04:15 PM 16058
34332 15.3 4.01 0 71 37 64 5.1 -74 8 03/07/2025 04:00 PM 16057
34331 15.3 4.01 0 72 37 64 5.1 -74 8 03/07/2025 03:45 PM 16056
34330 15.3 4.01 0 72 37 64 5.1 -74 8 03/07/2025 03:30 PM 16055
34329 15.4 4.02 0 72 37 63 5.1 -74 8 03/07/2025 03:15 PM 16054
34328 15.3 4.01 0 72 37 63 5.1 -74 8 03/07/2025 03:00 PM 16053
34327 15.3 4.01 0 73 36 64 5.1 -74 7 03/07/2025 02:45 PM 16052
34326 15.3 4.01 0 73 36 64 5.1 -74 8 03/07/2025 02:30 PM 16051
34325 15.4 4.01 0 73 36 63 5.1 -75 7 03/07/2025 02:15 PM 16050
34324 15.3 4.02 0 72 36 64 5.1 -74 7 03/07/2025 02:00 PM 16049
34323 15.4 4.03 0 71 36 63 5.1 -74 8 03/07/2025 01:45 PM 16048
34322 15.3 4.01 0 71 35 63 5.1 -73 8 03/07/2025 01:30 PM 16047
34321 15.3 4.01 0 70 36 63 5.1 -74 8 03/07/2025 01:15 PM 16046
34320 15.5 4.01 0 69 36 63 5.1 -75 8 03/07/2025 01:00 PM 16045
34319 15.3 4.01 0 68 36 62 5.1 -74 8 03/07/2025 12:45 PM 16044
34318 15.3 4.01 0 67 36 62 5.1 -73 7 03/07/2025 12:30 PM 16043
34317 15.3 4.01 0 66 36 60 5.1 -73 8 03/07/2025 12:15 PM 16042
34316 15.3 4.01 0 65 35 61 5.1 -71 8 03/07/2025 12:00 PM 16041
34315 15.3 4.01 0 63 36 60 5.1 -74 8 03/07/2025 11:45 AM 16040
34314 15.3 4.01 0 62 35 58 5.1 -73 8 03/07/2025 11:15 AM 16038
34313 15.3 4.09 0 60 36 57 5.1 -73 8 03/07/2025 11:00 AM 16037